Location: Wildcat Hills Observatory
(41.6350°N, 103.6812°W)
Time: 01:38:25
(UTC-06:00)

Daily predictions for brighter satellites

Satellite Brightness Start Highest point End
(mag) Time Altitude Azimuth Time Altitude Azimuth Time Altitude Azimuth
SJ 16-02 4.4 03:52:07 12° ENE 03:52:07 12° ENE 03:52:49 10° ENE
USA 215 4.2 03:45:58 10° NE 03:50:01 41° NNE 03:50:01 41° NNE
ADEOS II 3.9 03:57:11 10° NNE 03:59:49 27° NE 03:59:49 27° NE
NOSS 3-1 (C) 4.3 04:09:15 45° NE 04:09:15 45° NE 04:13:41 10° NE
USA 229 DEB 4.5 04:13:53 41° N 04:13:53 41° N 04:18:33 10° NNE
USA 229 4.5 04:13:58 41° N 04:13:58 41° N 04:18:39 10° NNE
NOSS 3-1 (A) 4.0 04:16:39 53° E 04:16:39 53° E 04:21:59 10° NE
USA 267 3.3 04:16:37 10° ESE 04:23:06 70° NE 04:23:32 68° NNE
Cosmos 2219 4.0 04:31:24 43° SE 04:31:24 43° SE 04:35:08 10° SSE
Cosmos 2297 Rocket 4.2 04:28:21 10° N 04:33:02 26° NE 04:37:41 10° ESE
Cosmos 1943 Rocket 4.3 04:39:22 14° N 04:39:22 14° N 04:40:26 10° N
Cosmos 2181 Rocket 4.2 04:38:36 21° S 04:42:49 67° E 04:48:55 10° NNE
Cosmos 2341 Rocket 4.0 04:37:46 10° N 04:44:14 84° E 04:50:36 10° S
Cosmos 372 Rocket 4.1 04:45:54 70° ENE 04:45:54 70° ENE 04:50:52 10° NNE
Okean O Rocket 2.0 04:51:43 10° NNE 04:56:06 63° E 04:56:09 63° ESE
Meteor 1-16 Rocket 4.1 04:53:22 10° N 04:59:07 84° W 05:05:00 10° S
USA 81 4.4 04:55:05 10° S 05:00:17 64° E 05:05:31 10° N
PAYLOAD B 4.4 04:57:35 10° NNE 05:03:06 72° ESE 05:08:36 10° S
CZ-4B R/B 3.6 04:58:33 10° NNE 05:04:01 64° ESE 05:09:34 10° S
Cosmos 1269 Rocket 3.9 05:02:48 40° NNW 05:04:48 88° E 05:10:06 10° SSE
Lacrosse 5 4.1 05:04:11 13° NNW 05:05:13 14° N 05:07:49 10° NNE
Meteor 2-21 4.3 05:01:15 10° N 05:07:21 79° W 05:13:27 10° S
Meteor 2-5 Rocket 3.7 05:14:08 45° SW 05:15:46 63° WNW 05:21:32 10° N
Cosmos 1125 Rocket 3.6 05:19:38 52° WNW 05:19:38 52° WNW 05:24:48 10° N
Cosmos 1842 Rocket 3.8 05:15:33 10° N 05:19:53 66° E 05:24:10 10° SSE
Cosmos 2366 rocket 4.0 05:16:33 10° N 05:22:44 80° E 05:28:55 10° S
Meteor 2-14 Rocket 4.3 05:19:53 10° NNW 05:25:56 73° W 05:31:58 10° S
RUBIN 8/PSLV 4.4 05:22:01 10° N 05:26:17 68° WNW 05:27:04 54° SW
Cosmos 1674 4.0 05:23:53 10° SSE 05:27:21 39° E 05:30:51 10° NNE
SJ 16-02 2.0 05:29:11 37° NW 05:29:11 37° NW 05:32:27 10° N
SWAS 4.4 05:28:40 58° WSW 05:28:40 58° WSW 05:32:48 10° S
Cosmos 2278 4.0 05:27:13 10° SSW 05:32:48 69° ESE 05:38:26 10° NNE
Meteor 2-16 Rocket 4.3 05:26:51 10° NNW 05:33:00 76° W 05:39:07 10° S
SL-8 Rocket 3.9 05:27:18 10° NNW 05:33:33 64° W 05:39:46 10° S
USA 215 4.3 05:29:17 10° NE 05:34:48 30° NNW 05:37:22 23° NW
Cosmos 2227 Rocket 2.1 05:34:45 10° NNW 05:40:28 83° WSW 05:46:08 10° SSE
ADEOS II 3.2 05:37:22 10° N 05:40:45 24° NW 05:40:45 24° NW
USA 116 3.7 05:41:59 10° SSE 05:45:46 89° E 05:50:06 10° NNW
Cosmos 864 Rocket 4.4 05:41:34 10° NNW 05:47:43 70° W 05:53:47 10° S
ATLAS 2AS CENTAUR R/B 3.6 05:46:59 10° SSW 05:54:26 59° ESE 06:02:22 10° NE
SKYMED 2 4.1 05:52:47 10° SSE 05:57:03 62° ENE 06:01:21 10° N
Okean 3 Rocket 4.1 05:54:08 10° S 05:58:32 63° E 06:02:55 10° NNE
Meteor 1-24 Rocket 4.1 05:54:09 10° SW 05:59:49 43° WNW 06:05:24 10° N
Cosmos 2251 Rocket 3.6 05:54:39 10° NNW 06:00:04 82° ENE 06:05:26 10° SSE
Cosmos 1656 3.6 05:54:41 10° SSW 06:00:23 84° WNW 06:06:07 10° NNE
Cosmos 1818 4.2 05:55:20 10° SSW 06:00:38 59° ESE 06:06:00 10° NE
NOSS 2-3 (E) 3.8 05:56:44 11° SW 06:01:12 78° NW 06:06:41 10° NNE
CZ-2C R/B 3.9 05:58:08 10° S 06:02:45 51° W 06:07:19 10° NNW
IRS-1C Rocket 4.4 05:59:02 10° N 06:04:00 43° WNW 06:08:57 10° SW
SJ-6F 4.5 06:00:26 10° N 06:04:24 52° WNW 06:08:20 10° SSW
USA 267 3.9 06:00:33 10° S 06:06:23 34° SW 06:10:53 16° WNW
NOSS 3-1 (A) 4.4 06:04:08 20° W 06:07:04 29° NW 06:12:49 10° NNE
Meteor 1-31 Rocket 3.3 06:04:13 10° N 06:07:42 34° WNW 06:11:10 10° SW
Cosmos 2344 4.0 06:00:29 10° SSW 06:08:02 69° ESE 06:16:19 10° NE
Cosmos 2218 Rocket 4.4 06:02:41 10° NNW 06:08:28 41° W 06:14:18 10° SSW
KORONAS-FOTON 3.6 06:07:44 10° S 06:11:30 79° W 06:15:19 10° N
Cosmos 2297 Rocket 2.4 06:11:54 10° NW 06:17:21 50° WSW 06:22:45 10° S
ATLAS 3B R/B 3.4 06:11:33 10° NNW 06:18:05 51° NE 06:24:24 10° SE
MTI 4.3 06:15:07 10° S 06:18:09 38° W 06:21:14 10° NNW
Cosmos 1908 3.5 06:14:53 10° NNW 06:18:31 42° W 06:22:07 10° SSW
Cosmos 1607 4.0 06:15:55 10° NW 06:22:23 71° WSW 06:28:47 10° SSE
Cosmos 1697 Rocket 2.7 06:17:53 10° SSW 06:23:34 81° WNW 06:29:16 10° NNE
ATLAS CENTAUR R/B 2.7 06:20:12 10° NNW 06:23:43 35° NE 06:27:23 10° ESE
USA 40 PKM 4.4 06:21:36 10° NW 06:24:56 70° NE 06:29:02 10° SE
Nadezhda 3 Rocket 4.0 06:20:36 10° SSW 06:26:53 70° W 06:33:09 10° N
EO 1 Del DPAF 3.7 06:24:55 10° S 06:28:32 40° W 06:32:10 10° NNW
Cosmos 2082 4.1 06:24:02 10° NW 06:29:17 40° WSW 06:34:29 10° S
Cosmos 2084 Rocket 4.4 06:26:49 13° W 06:29:51 26° NW 06:33:20 10° NNE
Okean O Rocket 3.4 06:29:47 10° NNW 06:31:57 14° WNW 06:33:36 11° W
Cosmos 2221 3.0 06:30:44 10° NNW 06:34:51 40° W 06:38:56 10° SSW
NOSS 2-3 (C) 4.4 06:31:37 10° WSW 06:36:08 43° NW 06:41:27 10° NNE
Meteor 1-28 Rocket 4.3 06:33:09 10° SSW 06:36:16 24° W 06:39:24 10° NW
CZ-2C R/B 2.7 06:32:35 10° NNE 06:37:38 77° ESE 06:42:45 10° S
Cosmos 2263 Rocket 4.4 06:33:26 10° N 06:37:48 23° NE 06:42:08 10° ESE
Cosmos 1300 2.7 06:34:34 10° N 06:38:25 87° W 06:42:14 10° S
Cosmos 1980 Rocket 2.4 06:33:30 10° SSW 06:39:06 80° ESE 06:44:45 10° NNE
Cosmos 1408 Rocket 3.6 06:35:40 10° S 06:39:59 83° E 06:44:23 10° N
Cosmos 1626 3.8 06:39:50 10° SSE 06:43:18 39° E 06:46:48 10° NNE
COSMO-SKYMED 1 3.1 06:41:07 10° SSW 06:45:08 38° W 06:49:13 10° NNW
Iridium 4 Rocket 3.9 06:40:14 10° N 06:45:47 74° E 06:50:50 10° S
MSX 4.2 06:40:43 10° NNE 06:46:33 74° ESE 06:52:18 10° S
PAYLOAD A 3.9 06:43:57 10° N 06:48:37 59° WNW 06:53:24 10° SSW
Cosmos 2322 Rocket 4.4 06:44:16 10° SSE 06:49:12 32° ESE 06:54:07 10° NE
Lacrosse 5 3.7 06:45:49 10° NNW 06:49:52 23° NNE 06:53:56 10° ENE
